Year,Month,Day,Hour,Minute,Value (Times are PST for temperature in C)
2019,01,17,00,00,1.90
2019,01,17,00,01,1.90
2019,01,17,00,02,1.90
2019,01,17,00,03,1.90
2019,01,17,00,04,1.90
2019,01,17,00,05,1.90
2019,01,17,00,06,1.90
2019,01,17,00,07,1.90
2019,01,17,00,08,1.90
2019,01,17,00,09,2.00
2019,01,17,00,10,2.00
2019,01,17,00,11,2.00
2019,01,17,00,12,2.00
2019,01,17,00,13,2.00
2019,01,17,00,14,2.00
2019,01,17,00,15,2.00
2019,01,17,00,16,2.10
2019,01,17,00,17,2.10
2019,01,17,00,18,2.10
2019,01,17,00,19,2.10
2019,01,17,00,20,2.10
2019,01,17,00,21,2.10
2019,01,17,00,22,2.10
2019,01,17,00,23,2.10
2019,01,17,00,24,2.10
2019,01,17,00,25,2.10
2019,01,17,00,26,2.10
2019,01,17,00,27,2.10
2019,01,17,00,28,2.10
2019,01,17,00,29,2.10
2019,01,17,00,30,2.10
2019,01,17,00,31,2.10
2019,01,17,00,32,2.10
2019,01,17,00,33,2.10
2019,01,17,00,34,2.10
2019,01,17,00,35,2.10
2019,01,17,00,36,2.10
2019,01,17,00,37,2.10
2019,01,17,00,38,2.10
2019,01,17,00,39,2.10
2019,01,17,00,40,2.20
2019,01,17,00,41,2.20
2019,01,17,00,42,2.20
2019,01,17,00,43,2.20
2019,01,17,00,44,2.20
2019,01,17,00,45,2.20
2019,01,17,00,46,2.20
2019,01,17,00,47,2.30
2019,01,17,00,48,2.30
2019,01,17,00,49,2.30
2019,01,17,00,50,2.30
2019,01,17,00,51,2.30
2019,01,17,00,52,2.30
2019,01,17,00,53,2.30
2019,01,17,00,54,2.30
2019,01,17,00,55,2.30
2019,01,17,00,56,2.40
2019,01,17,00,57,2.40
2019,01,17,00,58,2.40
2019,01,17,00,59,2.30
2019,01,17,01,00,2.30
2019,01,17,01,01,2.30
2019,01,17,01,02,2.40
2019,01,17,01,03,2.40
2019,01,17,01,04,2.40
2019,01,17,01,05,2.40
2019,01,17,01,06,2.40
2019,01,17,01,07,2.40
2019,01,17,01,08,2.40
2019,01,17,01,09,2.40
2019,01,17,01,10,2.40
2019,01,17,01,11,2.40
2019,01,17,01,12,2.40
2019,01,17,01,13,2.40
2019,01,17,01,14,2.40
2019,01,17,01,15,2.40
2019,01,17,01,16,2.40
2019,01,17,01,17,2.40
2019,01,17,01,18,2.40
2019,01,17,01,19,2.40
2019,01,17,01,20,2.40
2019,01,17,01,21,2.40
2019,01,17,01,22,2.40
2019,01,17,01,23,2.40
2019,01,17,01,24,2.40
2019,01,17,01,25,2.40
2019,01,17,01,26,2.40
2019,01,17,01,27,2.40
2019,01,17,01,28,2.40
2019,01,17,01,29,2.40
2019,01,17,01,30,2.40
2019,01,17,01,31,2.50
2019,01,17,01,32,2.50
2019,01,17,01,33,2.50
2019,01,17,01,34,2.50
2019,01,17,01,35,2.60
2019,01,17,01,36,2.60
2019,01,17,01,37,2.60
2019,01,17,01,38,2.60
2019,01,17,01,39,2.60
